Location: ??
(35.5052°N, 139.7262°E)
Time: 16:49:53
(UTC+00:00)

ATLAS CENTAUR R/B - Pass Details

Date: 20 June 2021
Orbit: 472 x 671 km, 64.6° (Epoch: 13 June)

Event Time Altitude Azimuth Distance (km) Brightness Sun altitude
Rises 13:49:48 0° 309° (NW) 2,872 5.7 -29.7°
Reaches altitude 10° 13:52:44 10° 289° (WNW) 2,001 4.5 -29.9°
Enters shadow 13:53:48 14° 277° (W) 1,786 4.1 -29.9°
